Weather History for Waco, TX

Change the Weather History Date:

Wednesday, February 29, 2012

  Actual Average Record
Temperature  
Mean Temperature 60 °F 54 °F  
Max Temperature 77 °F 65 °F 89 °F (1904)
Min Temperature 43 °F 43 °F 23 °F (1984)
Degree Days  
Heating Degree Days 5 11  
Month to date heating degree days 350 415  
Since 1 July heating degree days 1616 1823  
Cooling Degree Days 0 0  
Month to date cooling degree days 5 6  
Year to date cooling degree days 6 9  
Growing Degree Days 12 (Base 50)    
Moisture  
Dew Point 47 °F    
Average Humidity 53    
Maximum Humidity 87    
Minimum Humidity 18    
Precipitation  
Precipitation T in 0.11 in 0.45 in (2004)
Month to date precipitation 2.80 2.63  
Year to date precipitation 7.04 4.75  
Snow  
Snow 0.00 in 0.00 in 0.00 in ()
Month to date snowfall T 0.5  
Since 1 July snowfall T 0.9  
Snow Depth 0.00 in    
Sea Level Pressure  
Sea Level Pressure 29.97 in    
Wind  
Wind Speed 7 mph (WSW)    
Max Wind Speed 17 mph    
Max Gust Speed 22 mph    
Visibility 9 miles    
Events Rain    
T = Trace of Precipitation, MM = Missing Value Source: NWS Daily Summary

Daily Weather History Graph

Daily Weather History Graph

Search for Another Location

Airport:

Trip Planner

Search our weather history database for the weather conditions in past years. The results will help you decide how hot, cold, wet, or windy it might be!

Date:

Astronomy

Feb. 29, 2012 Rise Set
Actual Time 6:56 AM CST 6:26 PM CST
Civil Twilight 6:32 AM CST 6:51 PM CST
Nautical Twilight 6:03 AM CST 7:19 PM CST
Astronomical Twilight 5:35 AM CST 7:47 PM CST
Moon 11:16 AM CST (2/29) 12:46 AM CST (2/29)
Length of Visible Light 12h 19m
Length of Day
11h 30m
Waxing Crescent, 47% of the Moon is Illuminated
Feb 29
Waxing Crescent
Feb 29
First Quarter
Mar 8
Full
Mar 14
Last Quarter
Mar 22
New

Hourly Weather History & Observations

Time (CST) Temp. Windchill Dew Point Humidity Pressure Visibility Wind Dir Wind Speed Gust Speed Precip Events Conditions
12:51 AM 68.0 °F - 64.0 °F 87% 29.93 in 10.0 mi South 12.7 mph - N/A   Overcast
1:51 AM 68.0 °F - 63.0 °F 84% 29.93 in 10.0 mi South 15.0 mph - N/A   Overcast
2:51 AM 68.0 °F - 64.0 °F 87% 29.93 in 9.0 mi South 8.1 mph - N/A   Overcast
3:51 AM 66.9 °F - 63.0 °F 87% 29.93 in 9.0 mi South 9.2 mph - N/A   Overcast
4:51 AM 66.9 °F - 63.0 °F 87% 29.93 in 8.0 mi South 9.2 mph - N/A   Overcast
5:14 AM 66.2 °F - 62.6 °F 88% 29.95 in 7.0 mi South 6.9 mph - N/A   Overcast
5:43 AM 68.0 °F - 64.4 °F 88% 29.97 in 7.0 mi WNW 6.9 mph - N/A   Overcast
5:51 AM 68.0 °F - 64.0 °F 87% 29.95 in 7.0 mi Calm Calm - 0.00 in Rain Light Rain
6:51 AM 66.0 °F - 64.9 °F 96% 29.97 in 4.0 mi NW 6.9 mph - 0.00 in   Overcast
7:01 AM 66.2 °F - 64.4 °F 94% 29.98 in 6.0 mi Calm Calm - 0.00 in Rain Light Rain
7:19 AM 64.4 °F - 48.2 °F 56% 30.00 in 9.0 mi NNW 11.5 mph - 0.00 in   Overcast
7:41 AM 62.6 °F - 42.8 °F 48% 30.01 in 10.0 mi NNW 12.7 mph - 0.00 in   Overcast
7:51 AM 63.0 °F - 42.1 °F 46% 29.99 in 10.0 mi NNW 11.5 mph - 0.00 in   Overcast
8:51 AM 62.1 °F - 39.9 °F 44% 30.02 in 10.0 mi NNW 9.2 mph - N/A   Overcast
9:51 AM 63.0 °F - 37.0 °F 38% 30.03 in 10.0 mi NW 10.4 mph - N/A   Overcast
10:51 AM 66.9 °F - 37.0 °F 33% 30.04 in 10.0 mi NNW 13.8 mph - N/A   Mostly Cloudy
11:51 AM 70.0 °F - 33.1 °F 26% 30.03 in 10.0 mi NNW 10.4 mph - N/A   Clear
12:51 PM 73.9 °F - 35.1 °F 24% 30.01 in 10.0 mi North 8.1 mph - N/A   Clear
1:51 PM 73.9 °F - 35.1 °F 24% 29.97 in 10.0 mi North 8.1 mph - N/A   Clear
2:51 PM 77.0 °F - 30.0 °F 18% 29.96 in 10.0 mi Calm Calm - N/A   Clear
3:51 PM 75.0 °F - 30.9 °F 20% 29.94 in 10.0 mi Calm Calm - N/A   Clear
4:51 PM 73.9 °F - 43.0 °F 33% 29.93 in 10.0 mi South 3.5 mph - N/A   Clear
5:51 PM 70.0 °F - 36.0 °F 29% 29.93 in 10.0 mi South 4.6 mph - N/A   Clear
6:51 PM 60.1 °F - 36.0 °F 41% 29.94 in 10.0 mi South 5.8 mph - N/A   Clear
7:51 PM 51.1 °F - 41.0 °F 68% 29.94 in 10.0 mi South 3.5 mph - N/A   Clear
8:51 PM 50.0 °F - 39.9 °F 68% 29.94 in 10.0 mi SW 3.5 mph - N/A   Clear
9:51 PM 48.0 °F - 39.9 °F 74% 29.95 in 10.0 mi West 3.5 mph - N/A   Clear
10:51 PM 46.0 °F 43.9 °F 39.0 °F 76% 29.95 in 10.0 mi SW 4.6 mph - N/A   Clear
11:51 PM 45.0 °F 40.6 °F 42.1 °F 90% 29.94 in 10.0 mi SSW 8.1 mph - N/A   Clear